Weather in Portofino

Italy     44°18′17″N   9°12′22″E
temp.,
°C
wind,
m/s
gust,
m/s
humid.,
%
clouds,
%
prec.,
mm/h
press.,
hPa
HPBL,
m
6 march, sat
sat601:00+11ne33776 0.0 1020127
04:00+11nne33710 0.0 1021118
07:00+11ne33720 0.0 1024138
10:00+13ne236616 0.1 1026357
13:00+12ene336220 0.1 1027606
16:00+12n236461 0.1 1027583
19:00+10ne446448 0.1 1027395
22:00+8ne44590 0.0 1028310
7 march, sun
sun701:00+8nne44580 0.0 1028292
04:00+8nne33530 0.0 1027292
07:00+8nne33490 0.0 1026250
10:00+10n114066 0.0 1025291
13:00+10sw224569 0.0 1023238
16:00+10e114657 0.0 1020156
19:00+11n004876 0.0 1019118
22:00+11n125784 0.0 1019177
8 march, mon
mon801:00+11ene226281 0.0 1018171
04:00+10nne226573 0.0 1016179
07:00+10nne336645 0.0 1016178
10:00+11n015827 0.0 1016258
13:00+12wsw336027 0.0 1015272
16:00+13w236019 0.0 1014262
19:00+12nne236843 0.0 1015108
22:00+11nne446698 0.0 1016200
9 march, tue
tue901:00+10nne446676 0.0 1016210
04:00+9nne446759 0.0 1015261
07:00+9nne446829 0.0 1015273
10:00+11n12570 0.0 1016441
13:00+12w44630 0.0 1016448
16:00+12wnw22610 0.0 1014463
19:00+11ne44591 0.0 1016442
22:00+10nne446471 0.0 1018257
10 march, wed
wed1001:00+10nne446485 0.0 1018252
04:00+9nne446391 0.0 1018213
07:00+9nne446045 0.0 1019204
10:00+11n01460 0.0 1021267
13:00+12sw32530 0.0 1021277
16:00+13wsw33610 0.0 1020247
19:00+12w45710 0.0 1021363
22:00+12n126849 0.0 1023202